Weather History for Cairns Airport, Queensland

Change the Weather History Date:

Wednesday, October 9, 2013

  Actual Average Record
Temperature  
Mean Temperature 74 °F -  
Max Temperature 89 °F 86 °F - ()
Min Temperature 59 °F 70 °F - ()
Cooling Degree Days 9    
Growing Degree Days 24 (Base 50)    
Moisture  
Dew Point 64 °F    
Average Humidity 70    
Maximum Humidity 100    
Minimum Humidity 34    
Precipitation  
Precipitation 0.00 in 0.08 in - ()
Sea Level Pressure  
Sea Level Pressure 29.95 in    
Wind  
Wind Speed 6 mph ()    
Max Wind Speed 18 mph    
Max Gust Speed -    
Visibility 7.2 miles    
Events      
T = Trace of Precipitation, MM = Missing Value Source: Averaged Metar Reports

Daily Weather History Graph

Daily Weather History Graph

Search for Another Location

Airport:

Trip Planner

Search our weather history database for the weather conditions in past years. The results will help you decide how hot, cold, wet, or windy it might be!

Date:

Astronomy

Oct. 09, 2013 Rise Set
Actual Time 5:53 AM AEST 6:15 PM AEST
Civil Twilight 5:31 AM AEST 6:37 PM AEST
Nautical Twilight 5:06 AM AEST 7:02 PM AEST
Astronomical Twilight 4:40 AM AEST 7:28 PM AEST
Moon 9:02 AM AEST (10/9) 10:20 PM AEST (10/9)
Length of Visible Light 13h 05m
Length of Day
12h 22m
Waxing Crescent, 19% of the Moon is Illuminated
Oct 9
Waxing Crescent
Oct 12
First Quarter
Oct 19
Full
Oct 27
Last Quarter
Nov 3
New

Hourly Weather History & Observations

Time (AEST) Temp. Heat Index Dew Point Humidity Pressure Visibility Wind Dir Wind Speed Gust Speed Precip Events Conditions
12:00 AM 68 °F - 67 °F 94% 29.91 in - West 4.6 mph - -  
12:00 AM 68.0 °F - 66.2 °F 94% 29.89 in 6.2 mi West 4.6 mph - N/A   Partly Cloudy
12:30 AM 68.0 °F - 66.2 °F 94% 29.89 in 6.2 mi Calm Calm - N/A   Partly Cloudy
1:00 AM 67 °F - 66 °F 97% 29.89 in - SSW 2.3 mph - -  
1:00 AM 68.0 °F - 66.2 °F 94% 29.89 in 6.2 mi SSW 2.3 mph - N/A   Partly Cloudy
1:30 AM 66.2 °F - 66.2 °F 100% 29.86 in 6.2 mi WNW 3.5 mph - N/A   Partly Cloudy
2:03 AM 66.2 °F - 64.4 °F 94% 29.86 in 6.2 mi SSE 3.5 mph - N/A   Partly Cloudy
2:30 AM 66.2 °F - 64.4 °F 94% 29.86 in 6.2 mi Calm Calm - N/A   Partly Cloudy
3:00 AM 62 °F - 60 °F 92% 29.88 in - Calm Calm - -  
3:00 AM 62.6 °F - 60.8 °F 94% 29.86 in 6.2 mi Calm Calm - N/A   Partly Cloudy
3:30 AM 62.6 °F - 62.6 °F 100% 29.89 in 6.2 mi Calm Calm - N/A   Partly Cloudy
4:00 AM 62 °F - 60 °F 91% 29.90 in - Calm Calm - -  
4:00 AM 62.6 °F - 60.8 °F 94% 29.89 in 6.2 mi Calm Calm - N/A   Partly Cloudy
4:30 AM 62.6 °F - 60.8 °F 94% 29.89 in 6.2 mi WNW 3.5 mph - N/A   Partly Cloudy
5:00 AM 60.8 °F - 59.0 °F 94% 29.89 in 6.2 mi WNW 4.6 mph - N/A   Partly Cloudy
5:30 AM 62.6 °F - 60.8 °F 94% 29.92 in 6.2 mi WNW 2.3 mph - N/A   Partly Cloudy
6:00 AM 62 °F - 60 °F 93% 29.92 in 19 mi Calm Calm - -   Partly Cloudy
6:00 AM 62.6 °F - 60.8 °F 94% 29.92 in 6.2 mi Calm Calm - N/A   Partly Cloudy
6:30 AM 62.6 °F - 60.8 °F 94% 29.92 in 6.2 mi Calm Calm - N/A   Partly Cloudy
7:00 AM 66 °F - 62 °F 84% 29.95 in - Calm Calm - -  
7:00 AM 66.2 °F - 62.6 °F 88% 29.95 in 6.2 mi Calm Calm - N/A   Partly Cloudy
7:30 AM 69.8 °F - 60.8 °F 73% 29.95 in 6.2 mi SE 10.4 mph - N/A   Partly Cloudy
8:00 AM 73.4 °F - 62.6 °F 69% 29.98 in 6.2 mi West 5.8 mph - N/A   Partly Cloudy
8:30 AM 77.0 °F - 59.0 °F 54% 29.98 in 6.2 mi SSE 9.2 mph - N/A   Partly Cloudy
9:00 AM 79 °F - 63 °F 49% 30.00 in 19 mi SE 8.1 mph - -   Partly Cloudy
9:00 AM 78.8 °F - 62.6 °F 57% 29.98 in 6.2 mi SE 8.1 mph - N/A   Partly Cloudy
9:30 AM 80.6 °F 81.8 °F 62.6 °F 54% 29.98 in 6.2 mi ENE 4.6 mph - N/A   Partly Cloudy
10:00 AM 82 °F - 68 °F 53% 29.99 in - NNE 8.1 mph - -  
10:00 AM 82.4 °F 85.4 °F 68.0 °F 62% 29.98 in 6.2 mi NNE 8.1 mph - N/A   Partly Cloudy
10:30 AM 82.4 °F 85.4 °F 68.0 °F 62% 29.98 in 6.2 mi NE 8.1 mph - N/A   Partly Cloudy
11:00 AM 82.4 °F 86.3 °F 69.8 °F 66% 29.98 in 6.2 mi NE 10.4 mph - N/A   Partly Cloudy
11:30 AM 86.0 °F 90.4 °F 69.8 °F 58% 29.98 in 6.2 mi NE 11.5 mph - N/A   Partly Cloudy
12:00 PM 89 °F - 68 °F 40% 29.96 in 19 mi NE 10.4 mph - -   Partly Cloudy
12:00 PM 89.6 °F 93.4 °F 68.0 °F 49% 29.95 in 6.2 mi NE 10.4 mph - N/A   Partly Cloudy
12:30 PM 87.8 °F 89.4 °F 64.4 °F 46% 29.95 in 6.2 mi East 13.8 mph - N/A   Partly Cloudy
1:00 PM 88 °F - 63 °F 34% 29.96 in - East 17.3 mph - -  
1:00 PM 87.8 °F 88.5 °F 62.6 °F 43% 29.95 in 6.2 mi East 17.3 mph - N/A   Partly Cloudy
1:30 PM 87.8 °F 88.5 °F 62.6 °F 43% 29.95 in 6.2 mi East 17.3 mph - N/A   Partly Cloudy
2:00 PM 86.0 °F 87.3 °F 64.4 °F 48% 29.92 in 6.2 mi East 18.4 mph - N/A   Partly Cloudy
2:30 PM 86.0 °F 87.3 °F 64.4 °F 48% 29.92 in 6.2 mi ESE 16.1 mph - N/A   Partly Cloudy
3:00 PM 86 °F - 65 °F 39% 29.94 in 19 mi East 17.3 mph - -   Partly Cloudy
3:00 PM 86.0 °F 87.3 °F 64.4 °F 48% 29.92 in 6.2 mi East 17.3 mph - N/A   Partly Cloudy
3:30 PM 84.2 °F 85.0 °F 62.6 °F 48% 29.92 in 6.2 mi ESE 18.4 mph - N/A   Partly Cloudy
4:00 PM 84 °F - 64 °F 40% 29.94 in - ESE 16.1 mph - -  
4:00 PM 84.2 °F 85.6 °F 64.4 °F 51% 29.92 in 6.2 mi ESE 16.1 mph - N/A   Partly Cloudy
4:30 PM 84.2 °F 85.0 °F 62.6 °F 48% 29.92 in 6.2 mi ESE 16.1 mph - N/A   Partly Cloudy
5:00 PM 82.4 °F 83.4 °F 62.6 °F 51% 29.95 in 6.2 mi SE 18.4 mph - N/A   Partly Cloudy
5:30 PM 80.6 °F 82.3 °F 64.4 °F 58% 29.95 in 6.2 mi SE 18.4 mph - N/A   Partly Cloudy
6:00 PM 79 °F - 66 °F 57% 29.96 in - SE 15.0 mph - -  
6:00 PM 78.8 °F - 66.2 °F 65% 29.95 in 6.2 mi SE 15.0 mph - N/A   Partly Cloudy
6:30 PM 78.8 °F - 66.2 °F 65% 29.95 in 6.2 mi ESE 16.1 mph - N/A   Partly Cloudy
7:00 PM 78 °F - 66 °F 59% 29.99 in - SE 15.0 mph - -  
7:00 PM 77.0 °F - 66.2 °F 69% 29.98 in 6.2 mi SE 15.0 mph - N/A   Partly Cloudy
7:30 PM 77.0 °F - 66.2 °F 69% 29.98 in 6.2 mi SE 12.7 mph - N/A   Partly Cloudy
8:00 PM 77.0 °F - 66.2 °F 69% 29.98 in 6.2 mi SSE 11.5 mph - N/A   Partly Cloudy
8:30 PM 77.0 °F - 66.2 °F 69% 30.01 in 6.2 mi South 9.2 mph - N/A   Scattered Clouds
9:00 PM 76 °F - 66 °F 63% 30.02 in - SSE 10.4 mph - -  
9:00 PM 75.2 °F - 66.2 °F 73% 30.01 in 6.2 mi SSE 10.4 mph - N/A   Scattered Clouds
9:30 PM 75.2 °F - 66.2 °F 73% 30.01 in 6.2 mi South 8.1 mph - N/A   Scattered Clouds
10:00 PM 75 °F - 67 °F 68% 30.03 in - SSE 10.4 mph - -  
10:00 PM 75.2 °F - 66.2 °F 73% 30.01 in 6.2 mi SSE 10.4 mph - N/A   Partly Cloudy
10:30 PM 75.2 °F - 66.2 °F 73% 30.04 in 6.2 mi SSE 9.2 mph - N/A   Partly Cloudy
11:00 PM 75.2 °F - 66.2 °F 73% 30.04 in 6.2 mi SSE 8.1 mph - N/A   Partly Cloudy
11:30 PM 75.2 °F - 66.2 °F 73% 30.04 in 6.2 mi South 8.1 mph - N/A   Partly Cloudy